Overview Statistics Trail Chart Weather Telemetry Raw packets
 

This is the latest recevied weather packets stored in our database for station/object W4UWO. If no packets are shown the sender has not sent any weather packets the latest 10 day(s).

<< 52 53 54 55 56 57 58 >>
Time Temp. Humidity Pressure Rain* Wind** Luminosity Snow
1788267378 26.11° C 78% 1021.7 hPa 0 mm - 164 W/m² -
1788267073 25.56° C 80% 1021.5 hPa 0 mm - 133 W/m² -
1788266774 25.56° C 80% 1021.5 hPa 0 mm - 133 W/m² -
1788266468 25° C 82% 1021.6 hPa 0 mm - 120 W/m² -
1788266169 25° C 82% 1021.5 hPa 0 mm - 107 W/m² -
1788265868 24.44° C 83% 1021.6 hPa 0 mm - 95 W/m² -
1788265567 24.44° C 83% 1021.7 hPa 0 mm - 83 W/m² -
1788265267 24.44° C 83% 1021.4 hPa 0 mm - 73 W/m² -
1788264962 24.44° C 83% 1021.3 hPa 0 mm - 63 W/m² -
1788264657 24.44° C 83% 1021.3 hPa 0 mm - 54 W/m² -
1788264052 23.33° C 87% 1021.3 hPa 0 mm - 44 W/m² -
1788263747 22.78° C 89% 1021.1 hPa 0 mm - 30 W/m² -
1788263444 22.22° C 91% 1021.2 hPa 0 mm - 24 W/m² -
1788263140 22.22° C 92% 1020.8 hPa 0 mm - 20 W/m² -
1788262839 22.22° C 92% 1020.9 hPa 0 mm - 16 W/m² -
1788262538 21.67° C 93% 1020.9 hPa 0 mm - 12 W/m² -
1788262234 21.67° C 93% 1020.6 hPa 0 mm - 9 W/m² -
1788261933 21.67° C 94% 1020.7 hPa 0 mm - 6 W/m² -
1788261628 21.67° C 94% 1020.5 hPa 0 mm - 4 W/m² -
1788261327 21.67° C 93% 1020.4 hPa 0 mm - 2 W/m² -
1788261025 21.67° C 93% 1020.6 hPa 0 mm - 1 W/m² -
1788260721 21.67° C 93% 1020.3 hPa 0 mm - 0 W/m² -
1788260417 21.67° C 93% 1020.3 hPa 0 mm - 0 W/m² -
1788260113 21.67° C 93% 1020.4 hPa 0 mm - 0 W/m² -
1788259812 21.67° C 93% 1020.4 hPa 0 mm - 0 W/m² -

* Rain latest hour (hover to see other rain measurements)
** Current wind speed in m/s (hover to see current wind gust speed)